CZ-6A DEB, 56589

Orbit data source: Space-Track

CZ-6A DEB, 56589 is space debris in SSO originally from a launch on Fri, 11 Nov 2022 UTC launched from the Taiyaun Space Center, China (TSC). Debris objects in space refer to the collection of defunct objects orbiting the Earth. Examples of debris include non-operational satellites, rocket bodies, and fragments generated from explosions, collisions, or faulty payload assembly.

Loading next visibility...
Identifier
56589, 2022-151ADM
Orbit
SSO
Country
Flag of CNCN / PRC
Related business
Manufacturer
SAST
Mission
Spacecraft
Bus & Motor
Unknown
Mass
Unknown
Launch date (UTC)
2022-11-11 (4 years ago)
Launch vehicle
Unknown
Launch site
Taiyaun Space Center, China (TSC)
Object type
Payload
Rocket body
Debris
Shape & HBR
Unknown shape, 0.1 m
Radar Cross Section
Medium (>0.1 m² and <1 m²)

Expand to show TLE details & history
Last TLE update: 3 days ago

TLE from 3 days ago
0 CZ-6A DEB
1 56589U 22151ADM 26170.37939249  .00002242  00000-0  14122-2 0  9998
2 56589  98.9038 134.7860 0204250  41.9734 319.6880 13.95486634164917
Epoch: 2026-06-19T09:06Z
TLE epoch observation values (Epoch: 2026-06-19T09:06:19.511Z)
Latitude
-0.00001°
Longitude
90.59549°
Altitude
800.12 km
Speed
7.511 km/s
True Right ascension
08h 59m 08s
True Declination
0° 00' 00"
Sunlit
Object was in daylight at epoch
Visualization orbit readout
Latitude
Unknown
Longitude
Unknown
Altitude
Unknown
Speed
Unknown
Apparent Right ascension
Unknown
Apparent Declination
Unknown
Sunlit
N/A
Visualization observer readout
Local Sidereal Time
23:18:44
Azimuth
Unknown
Elevation
Unknown
Doppler factor
Unknown
Orbital elements
Apogee altitude
1,055.457 km
Perigee altitude
757.873 km
Semi-major axis
7,284.802 km
Eccentricity
0.02043
Inclination
98.9038°
RAAN
134.786°
Arg. of periapsis
41.9734°
True anomaly
318.14394°
Mean anomaly
319.688°
Eccentric anomaly
318.91899°
Mean motion
3.49073 °/min
Orbital period
103.13 mins
BSTAR
0.0014122
Loading maneuver chart data...
Computing Atmospheric mass density...
Loading historical data...
Loading historical data...
Loading historical data...
Loading historical data...
Loading historical data...
Loading historical data...
Loading historical data...

Documentation

Showing up to 5 results
|